SL-16 DEB, 22500

Orbit data source: Space-Track

SL-16 DEB, 22500 is space debris in LEO originally from a launch on Fri, 25 Dec 1992 UTC launched from the Tyuratam Missile And Space Complex (TTMTR). Debris objects in space refer to the collection of defunct objects orbiting the Earth. Examples of debris include non-operational satellites, rocket bodies, and fragments generated from explosions, collisions, or faulty payload assembly.

Loading next visibility...
Identifier
22500, 1992-093GK
Orbit
LEO
Country
Flag of CISCIS
Related business
Manufacturer
Unknown
Mission
Spacecraft
Bus & Motor
Unknown
Mass
Unknown
Launch date (UTC)
1992-12-25 (33 years ago)
Launch vehicle
Unknown
Launch site
Tyuratam Missile And Space Complex (TTMTR)
Object type
Payload
Rocket body
Debris
Shape & HBR
Unknown shape, 0.1 m
Radar Cross Section
Small (<0.1 m²)

Expand to show TLE details & history
Last TLE update: 19 hours ago

TLE from 19 hours ago
0 SL-16 DEB
1 22500U 92093GK  25303.04185628  .00000961  00000-0  39554-3 0  9994
2 22500  70.8465 169.8707 0058357 122.9592 237.7167 14.28595077697527
Epoch: 2025-10-30T01:00Z
TLE epoch observation values (Epoch: 2025-10-30T01:00:16.382Z)
Latitude
-0.00002°
Longitude
116.19611°
Altitude
821.376 km
Speed
7.431 km/s
True Right ascension
11h 19m 28s
True Declination
0° 00' 00"
Sunlit
Object was in daylight at epoch
Visualization orbit readout
Latitude
Unknown
Longitude
Unknown
Altitude
Unknown
Speed
Unknown
Apparent Right ascension
Unknown
Apparent Declination
Unknown
Sunlit
N/A
Visualization observer readout
Local Sidereal Time
15:24:28
Azimuth
Unknown
Elevation
Unknown
Doppler factor
Unknown
Orbital elements
Apogee altitude
836.214 km
Perigee altitude
752.501 km
Semi-major axis
7,172.494 km
Eccentricity
0.00584
Inclination
70.8465°
RAAN
169.8707°
Arg. of periapsis
122.9592°
True anomaly
237.15355°
Mean anomaly
237.7167°
Eccentric anomaly
237.43491°
Mean motion
3.57304 °/min
Orbital period
100.75 mins
BSTAR
0.00039554
Loading maneuver chart data...
Computing Atmospheric mass density...
Loading historical data...
Loading historical data...
Loading historical data...
Loading historical data...
Loading historical data...
Loading historical data...
Loading historical data...

Documentation

Showing up to 5 results
|